Wind_Speed
50 49 48 48 47 47 47 46 46 46 44 42 41 38 36 35 35 35 36 38 39 40 41 40 40 41 42 43 44 44 43 41 39 39 42 45 47 48 49 50 51 52 53 51 47 44 44 44 44 43 42 43 43 44 45 46 46 46 47 47 48 49 49
50 49 49 48 46 45 45 45 45 44 42 41 40 38 36 36 36 36 37 39 40 41 41 41 41 41 43 44 44 42 40 38 38 41 45 47 48 49 50 50 52 52 50 47 44 43 42 41 41 40 39 40 43 45 45 46 46 47 47 48 48 49 50
50 49 49 48 46 45 44 44 42 41 40 40 39 37 36 37 37 38 38 40 41 42 42 42 42 42 42 42 40 38 37 38 42 46 48 49 50 50 50 51 51 49 46 44 42 40 39 38 37 38 39 42 45 46 46 46 47 47 47 48 48 49 50
50 49 49 47 45 44 44 42 40 39 39 39 38 37 37 38 38 39 40 41 42 43 43 43 42 42 40 39 39 39 41 45 47 49 49 50 50 50 50 50 48 45 43 41 39 36 35 34 35 37 41 44 46 47 47 47 47 47 47 47 48 49 50
51 50 49 47 44 44 44 42 40 40 41 41 40 38 38 39 40 40 41 43 43 44 44 44 43 42 41 42 44 46 48 50 50 49 50 50 50 50 49 47 44 42 41 38 34 32 32 34 36 39 42 45 47 48 48 47 46 46 46 46 47 49 49
53 52 50 47 45 44 45 44 43 42 43 43 41 39 39 40 41 41 43 44 44 44 45 45 45 44 45 46 48 49 49 50 50 50 50 49 49 48 46 42 41 40 36 32 30 30 32 35 39 41 44 46 47 47 46 45 45 45 45 45 46 47 49
54 53 50 47 46 45 46 46 44 44 45 44 41 40 40 41 42 43 44 44 45 46 46 46 46 46 47 48 48 49 49 50 50 49 49 48 47 44 41 39 38 36 31 28 29 31 33 37 40 42 46 47 46 46 46 46 46 46 46 47 48 51 54
54 53 50 48 47 47 47 47 46 46 45 44 42 41 41 42 43 44 45 45 46 47 47 47 47 47 48 48 49 49 49 49 49 48 46 45 42 39 38 37 35 31 27 27 29 31 34 38 40 43 47 47 47 48 48 47 48 48 49 51 53 56 59
54 52 49 48 48 47 47 47 47 46 45 44 43 42 42 43 44 45 46 47 47 48 48 48 48 48 48 48 48 48 48 48 46 44 43 41 38 36 36 35 31 27 26 28 29 31 36 40 41 44 47 48 48 50 50 50 51 51 53 55 58 60 62
54 52 49 48 48 47 47 48 47 47 46 45 44 44 44 45 46 47 48 48 49 49 49 48 48 48 48 48 47 47 46 45 43 41 40 37 35 34 34 31 28 26 26 28 29 32 37 41 41 43 48 49 50 51 52 53 54 55 56 58 60 63 65
55 52 50 49 48 47 48 49 49 48 47 47 46 46 46 47 47 48 49 49 50 50 49 48 47 47 46 46 45 44 43 41 40 38 36 34 33 33 32 29 26 26 27 28 30 34 39 43 43 44 48 51 52 53 54 55 56 58 59 60 62 65 67
56 53 51 50 48 48 50 51 51 50 49 49 49 48 48 48 48 49 49 49 50 49 47 46 45 44 44 43 41 41 40 39 37 35 33 32 32 32 30 28 27 27 27 29 32 36 41 45 45 44 48 51 54 55 57 58 58 59 61 62 64 67 70
57 54 52 51 50 50 52 53 53 52 50 50 51 50 49 49 49 48 49 49 49 47 44 42 42 41 41 39 39 38 38 36 34 32 31 31 32 31 29 28 28 28 29 31 35 38 42 46 47 46 48 52 55 58 60 60 60 61 62 64 66 69 72
57 55 54 53 52 53 54 55 55 54 52 51 51 51 50 49 48 48 48 48 46 42 40 39 39 39 38 37 37 36 35 33 31 31 31 31 32 30 28 28 28 29 31 33 36 39 42 46 48 48 49 52 56 60 62 63 63 63 64 65 68 70 73
55 54 55 54 54 55 56 57 55 54 52 51 51 50 49 48 47 46 46 45 41 38 37 38 38 37 36 35 35 35 33 32 31 31 31 31 31 30 29 29 30 31 33 34 37 40 44 47 49 50 52 53 57 61 63 65 65 64 65 67 69 71 73
53 52 54 55 56 56 57 56 54 53 51 50 49 48 47 46 45 44 43 40 37 35 36 36 35 34 33 34 34 34 33 31 31 31 31 32 32 31 31 32 32 33 34 35 38 42 45 48 51 52 53 55 58 62 65 67 68 67 66 68 70 72 73
51 49 50 53 55 55 54 53 51 50 48 47 46 45 44 43 42 41 38 36 34 34 35 34 32 32 32 33 34 33 32 31 31 31 32 33 32 31 32 33 34 34 35 35 39 42 45 49 52 53 55 57 59 63 66 69 71 69 67 68 71 72 74
50 47 47 49 51 51 50 49 48 46 45 44 43 42 41 41 39 37 34 33 33 33 32 31 30 30 31 32 33 32 31 31 30 31 32 32 32 31 33 34 35 35 35 36 40 42 46 50 53 53 55 58 62 65 67 70 72 70 68 69 71 73 75
48 47 46 46 46 47 46 46 45 43 42 41 39 39 39 38 36 33 32 32 32 30 29 28 29 30 31 32 31 31 30 30 30 30 31 31 32 32 34 35 35 35 35 37 40 43 46 51 53 54 55 58 62 66 68 71 72 71 69 69 71 73 76
47 47 45 44 44 44 43 43 42 40 39 38 37 37 37 35 33 31 31 31 29 27 27 27 28 29 31 31 31 30 29 29 29 30 30 31 32 33 34 36 36 36 36 38 40 44 48 52 54 54 55 58 62 65 68 71 72 71 70 70 72 74 77
46 45 44 43 42 43 42 41 40 38 37 37 36 36 35 33 31 30 30 28 26 26 26 27 28 30 31 31 31 30 29 29 29 30 31 32 33 34 36 37 37 37 36 38 41 45 49 52 54 54 55 59 64 66 69 71 72 71 70 70 72 75 78
45 44 44 42 42 42 41 39 38 37 37 37 36 35 33 31 30 30 29 27 25 26 27 27 29 30 31 31 31 30 29 29 30 31 32 33 34 35 37 39 38 36 35 38 42 46 49 51 52 53 56 61 65 67 70 72 72 72 71 71 73 76 79
44 44 44 42 41 41 39 38 38 37 37 36 35 34 32 31 30 29 28 26 26 26 27 28 30 31 31 32 31 29 28 29 31 33 34 35 36 37 37 37 36 34 35 40 45 47 49 50 51 53 57 62 66 68 70 72 73 72 71 71 73 76 80
45 45 44 42 41 40 38 37 38 37 36 35 34 34 32 31 30 29 28 28 27 26 27 28 30 32 32 32 31 29 28 31 34 36 36 37 37 38 37 35 33 34 38 43 47 48 49 50 51 53 58 63 66 68 71 72 73 73 72 72 74 77 80
46 45 43 41 40 39 38 38 37 35 34 35 35 34 33 31 30 30 29 28 28 27 27 29 31 33 33 32 31 30 31 33 35 37 37 38 38 38 36 34 34 38 42 46 48 48 49 50 52 55 59 63 66 68 70 72 74 73 72 73 75 78 81
47 45 42 40 40 39 37 38 37 34 34 35 36 35 32 30 30 30 30 30 28 27 28 29 31 33 33 31 31 32 33 34 35 36 37 38 37 37 37 37 38 41 45 47 49 49 50 51 53 56 60 64 67 68 70 73 74 73 72 73 75 78 81
47 45 42 40 39 39 38 38 36 34 35 37 37 35 32 30 30 30 31 31 29 29 29 30 31 33 33 32 32 34 35 35 35 35 36 37 38 40 42 42 43 45 47 50 51 51 52 52 54 57 62 65 67 68 70 74 74 73 73 73 75 78 82
47 44 42 40 40 39 39 38 36 34 36 38 37 35 31 29 30 31 31 31 31 31 31 31 32 33 32 33 34 35 35 35 36 36 37 39 41 43 45 46 47 49 51 53 53 54 54 53 55 59 63 65 65 67 71 74 74 73 73 73 75 79 82
46 43 42 41 41 40 40 39 37 36 37 38 37 35 32 31 30 31 32 33 33 35 35 34 32 32 32 34 35 35 34 34 37 39 40 41 42 44 46 49 50 52 53 55 55 55 54 54 56 60 63 63 64 68 73 74 74 74 73 73 75 79 83
45 43 43 43 42 41 41 40 38 37 38 38 37 36 35 33 31 31 32 35 36 38 38 36 33 32 33 35 35 36 36 37 39 41 43 44 45 48 50 51 52 53 54 55 54 54 53 54 57 61 62 62 65 70 73 74 74 74 73 73 76 80 83
46 45 45 44 43 42 42 41 39 38 38 38 38 38 37 35 33 32 34 37 38 39 39 37 36 34 33 34 36 37 39 40 41 42 44 45 47 49 50 51 52 53 53 53 53 53 53 55 58 60 60 62 66 71 73 74 74 73 72 73 76 80 84
47 47 47 45 44 44 43 41 40 38 38 39 40 39 38 36 35 35 36 37 38 39 40 40 40 38 35 35 37 38 39 40 41 44 46 47 47 48 49 50 51 51 51 51 51 52 53 56 58 59 60 63 67 71 73 74 74 73 72 74 77 81 85
49 49 48 45 45 45 44 42 40 40 40 41 41 41 39 38 37 37 37 38 39 41 42 43 42 41 39 39 39 40 41 41 43 46 47 47 47 48 50 50 50 49 49 49 49 51 54 56 57 59 62 65 68 72 73 73 73 73 73 75 78 82 86
51 51 49 46 46 46 44 42 42 43 43 43 43 43 42 40 39 39 40 40 41 43 45 44 43 41 40 41 42 43 43 44 45 47 45 45 46 48 49 49 48 47 47 47 49 52 54 56 58 61 63 66 69 72 73 73 73 73 73 76 79 83 87
54 52 49 47 46 46 45 45 46 46 45 45 45 45 44 42 41 42 43 43 43 45 47 46 43 42 41 41 42 43 44 45 46 45 43 43 45 47 48 47 45 45 46 48 51 54 56 58 61 63 64 67 70 72 72 73 73 73 74 77 80 84 87
55 53 50 48 48 49 49 48 48 48 47 46 46 45 44 43 42 44 46 46 46 48 49 47 45 44 44 43 43 44 45 47 47 46 44 44 44 45 47 46 46 47 49 50 53 56 57 59 61 62 65 69 72 72 72 72 72 72 74 77 81 85 87
56 54 52 51 51 52 52 51 50 49 48 47 47 45 43 43 43 45 47 49 49 49 49 47 45 45 46 45 46 47 46 46 48 47 46 45 45 45 46 46 48 50 51 52 54 55 56 59 61 64 67 70 71 71 71 72 72 73 75 79 83 85 87
Wind_Direction
259 261 263 265 266 268 270 273 274 275 275 277 278 281 283 283 283 285 288 290 291 292 294 296 299 300 301 302 302 301 301 300 299 300 303 306 308 310 311 312 313 315 317 319 320 322 324 325 324 325 326 327 329 331 330 327 325 322 320 318 317 315 314
258 260 262 264 266 268 269 272 273 273 273 274 276 279 280 281 282 285 288 289 290 291 294 297 299 300 302 302 302 300 299 297 298 301 305 307 308 309 311 312 314 317 318 319 322 324 326 326 327 329 331 332 333 333 332 328 325 323 320 319 317 315 314
258 260 261 263 265 266 268 270 271 271 271 272 274 277 278 280 283 286 288 288 289 291 294 297 299 301 302 301 299 298 297 297 299 303 305 307 308 310 311 313 315 317 318 320 323 326 327 330 332 334 335 335 334 333 332 329 326 324 322 320 319 317 316
258 259 261 262 263 264 266 268 268 269 270 271 273 276 278 281 284 286 287 287 289 292 294 296 298 300 299 297 296 296 296 298 300 303 305 306 308 309 311 313 316 317 318 322 325 328 332 335 337 336 336 335 334 333 332 329 327 325 324 322 321 320 319
257 259 260 261 262 262 264 265 267 268 269 271 273 277 279 281 283 284 285 287 290 292 294 295 296 296 294 292 293 294 296 298 300 302 304 306 307 309 311 314 315 316 320 324 327 331 336 339 339 338 337 336 335 334 333 331 329 328 327 326 324 324 324
256 257 259 260 261 261 262 264 266 268 269 271 274 277 278 281 282 283 285 288 290 291 292 294 295 294 293 293 294 295 297 298 299 301 303 305 307 309 311 314 315 317 321 324 328 333 338 340 340 340 339 339 339 339 338 336 334 332 330 330 329 329 330
255 257 258 260 260 260 262 265 266 267 269 271 274 276 278 280 281 283 285 287 288 290 291 293 293 294 294 295 295 296 297 298 299 301 303 305 307 309 312 313 314 318 321 324 329 334 338 340 341 342 342 343 343 344 344 344 343 340 336 334 332 332 332
255 257 258 259 260 260 262 265 266 267 268 271 273 276 278 279 280 283 284 286 287 289 291 292 293 294 294 295 296 297 298 299 300 302 304 305 307 309 311 312 315 318 320 324 330 335 338 341 342 344 345 345 346 348 348 348 348 346 343 340 339 338 338
255 257 258 259 259 261 263 264 265 266 269 271 273 275 277 278 280 282 284 285 287 289 290 292 293 294 295 296 297 297 298 300 301 302 304 305 307 309 310 311 313 316 318 324 330 334 339 341 342 344 346 347 348 349 349 349 349 348 347 345 344 344 343
254 256 257 258 259 260 261 262 264 266 269 271 273 274 276 278 281 282 284 286 287 289 290 292 293 294 295 296 297 298 299 299 301 302 303 304 307 308 308 309 311 313 317 323 329 334 340 341 340 342 345 347 348 348 349 349 349 349 349 347 346 345 343
253 255 256 257 258 259 260 261 264 266 269 271 273 274 276 278 280 282 284 286 287 289 290 292 293 295 295 296 296 297 298 298 300 301 302 304 306 306 306 306 307 310 315 320 326 332 338 340 339 340 343 347 348 348 347 348 348 349 348 348 346 345 344
252 253 254 255 256 258 259 262 264 266 269 271 273 275 277 278 280 282 284 285 287 288 290 292 294 294 294 295 296 296 296 298 300 300 302 304 305 303 303 303 304 308 312 318 324 329 334 338 338 337 341 345 348 348 347 346 346 347 347 347 346 345 344
251 252 253 254 256 257 260 263 265 266 269 271 273 275 277 279 280 282 283 284 286 288 291 293 293 292 293 294 295 295 295 297 299 300 302 303 302 301 300 300 302 305 310 317 324 327 331 337 338 336 337 341 345 346 346 345 344 344 345 345 345 345 345
250 251 252 254 255 258 260 263 266 268 269 271 273 275 277 278 280 281 282 283 285 289 291 291 290 290 292 294 294 294 295 297 298 300 302 301 300 300 298 298 300 304 310 317 324 327 331 336 337 335 335 337 341 343 344 344 343 342 343 343 343 344 345
250 251 252 253 255 257 260 263 266 268 270 271 273 275 276 278 279 280 281 283 286 289 289 288 288 290 292 293 293 294 296 297 298 300 299 299 299 298 296 297 300 305 310 316 322 326 330 334 336 335 334 335 338 340 342 343 343 341 341 342 343 343 344
252 251 252 254 255 258 260 263 266 268 269 271 272 273 275 277 278 278 280 284 287 287 285 285 287 290 291 292 293 295 296 297 298 298 297 298 299 297 295 297 300 304 308 313 321 325 329 332 334 335 334 335 336 338 339 341 342 341 340 341 342 343 343
253 253 253 254 256 258 261 263 265 267 268 269 270 272 274 274 275 277 280 284 284 282 282 284 287 290 292 294 294 295 296 297 296 296 297 299 299 297 296 298 301 303 306 312 320 325 327 330 333 334 334 335 335 336 338 341 341 339 338 339 341 342 342
253 253 253 254 256 258 260 262 263 265 266 268 269 271 271 271 273 277 280 281 279 279 280 283 288 292 294 295 296 296 296 296 295 297 299 300 300 298 299 300 301 302 304 311 319 324 326 329 332 332 333 334 334 336 338 339 339 337 336 337 339 341 341
252 252 252 252 254 256 258 259 261 263 265 266 267 268 268 270 274 277 277 276 275 276 280 285 290 294 295 296 297 297 296 294 294 297 299 300 301 302 302 302 302 302 303 309 318 322 325 329 330 330 331 332 333 335 336 336 336 335 335 336 338 340 340
250 250 250 251 252 254 256 258 260 262 262 263 264 264 266 270 273 273 272 270 272 276 282 288 293 295 296 298 298 296 293 291 293 296 298 299 301 304 305 304 303 301 301 307 316 322 325 327 328 328 329 330 332 333 334 334 334 334 333 335 337 339 340
247 248 249 250 251 253 255 257 259 259 260 260 261 262 265 269 269 267 266 267 271 278 285 291 294 296 298 298 297 294 290 289 292 295 295 296 299 303 304 304 303 301 301 307 316 321 323 325 326 327 328 330 331 332 332 333 333 333 333 334 337 338 340
246 247 248 248 250 252 254 256 257 257 257 258 259 261 264 265 263 262 263 266 273 280 287 292 295 296 297 298 296 292 288 288 291 292 293 296 299 300 300 302 302 302 302 308 317 321 322 324 325 325 327 329 330 331 331 332 332 332 333 334 336 338 340
244 245 246 247 248 250 252 254 254 255 255 256 257 260 260 259 258 259 262 268 275 282 288 292 293 294 296 297 294 289 287 288 289 291 294 298 298 298 300 302 301 301 304 311 317 319 320 322 323 324 327 328 329 330 330 331 331 332 332 334 336 338 339
243 244 245 246 247 249 249 250 251 252 253 254 256 257 257 256 257 259 264 270 276 282 287 290 291 292 294 295 291 287 287 288 291 294 296 295 294 297 301 301 299 301 307 312 316 318 320 321 322 324 326 327 328 328 329 330 331 331 332 333 335 337 339
242 243 244 244 245 246 246 247 249 250 250 251 253 255 255 255 257 262 267 272 277 282 286 287 288 290 292 292 289 288 288 291 294 296 294 292 292 296 299 299 299 304 309 312 315 317 319 320 321 324 325 326 327 327 327 329 331 331 331 333 334 337 339
241 243 242 242 243 244 244 245 246 245 246 249 252 253 253 255 259 266 271 275 278 282 284 285 286 287 289 290 291 291 292 294 295 294 292 291 292 295 298 299 302 306 309 311 314 316 317 317 319 323 324 325 325 325 326 328 330 330 331 332 334 336 338
241 242 241 240 241 241 241 242 242 241 243 247 250 251 252 256 262 268 272 274 278 282 284 284 284 285 287 289 291 292 292 292 293 293 294 294 294 295 297 299 301 304 307 310 312 313 314 314 317 322 323 324 324 324 325 327 328 329 330 331 333 336 338
240 241 241 240 239 239 239 239 238 238 241 246 249 251 253 257 262 267 271 274 279 281 282 283 283 284 286 288 291 292 292 291 291 293 295 294 293 294 295 297 299 301 304 306 307 309 309 311 316 320 322 322 322 323 325 327 327 328 329 331 333 335 337
238 240 240 238 237 237 237 237 236 237 241 245 249 251 253 256 261 267 271 275 277 280 283 285 285 284 284 285 288 291 291 289 289 291 291 291 291 292 294 296 297 298 300 302 303 304 305 309 316 320 320 320 320 322 325 326 327 327 328 330 332 334 336
235 237 238 237 235 235 236 236 236 237 240 245 249 252 254 257 261 267 271 273 277 281 285 286 285 283 282 283 284 286 286 287 289 290 291 290 290 290 292 294 295 296 298 300 301 302 304 309 316 318 318 317 319 322 324 325 325 326 327 329 331 333 336
232 234 235 235 234 235 235 236 235 237 240 245 250 254 256 258 262 266 269 273 278 283 285 286 285 282 279 278 280 281 284 286 288 290 291 291 290 290 291 294 296 298 299 300 302 304 306 311 315 316 315 316 318 321 322 323 324 325 326 328 330 332 335
231 233 233 233 234 234 235 236 235 237 241 245 250 254 257 259 262 265 269 274 279 282 284 286 287 283 278 275 275 279 283 286 289 291 292 291 291 292 295 298 300 300 301 303 305 307 309 312 314 314 314 314 317 319 321 322 323 324 325 327 329 332 334
231 233 233 232 233 234 236 236 236 237 240 245 250 254 256 258 261 264 268 272 276 279 281 284 284 281 277 274 274 279 282 285 291 295 294 293 294 296 298 301 302 304 306 307 308 308 309 311 313 313 312 313 315 318 319 321 322 323 324 326 328 331 333
231 232 232 232 233 235 236 236 237 238 240 244 249 253 255 258 261 265 268 271 274 276 279 282 281 278 275 274 275 279 281 282 289 295 295 295 298 300 301 303 305 307 309 309 308 309 310 311 312 311 311 312 314 316 318 319 321 322 323 325 328 330 332
230 232 232 233 234 236 236 236 237 239 241 244 248 252 256 259 263 267 270 272 274 276 277 280 280 277 275 276 277 279 280 281 287 295 295 295 300 303 304 306 307 308 308 308 308 309 310 310 310 309 309 310 313 315 317 318 320 321 323 325 327 329 331
228 231 232 233 235 236 237 237 238 240 242 244 248 252 257 261 266 269 272 274 277 277 278 280 280 278 277 278 280 282 282 282 287 293 294 295 299 303 303 304 304 304 305 306 306 307 308 308 307 307 308 309 311 314 316 317 319 320 322 324 327 329 331
228 229 230 232 234 236 238 239 239 241 243 246 249 253 256 262 266 270 274 277 279 279 279 280 279 277 277 279 282 284 284 284 286 291 294 296 298 298 299 301 302 302 302 303 304 305 305 305 305 305 306 308 311 314 316 317 318 320 322 324 326 328 330
Height
10752 10754 10755 10756 10757 10758 10759 10759 10760 10760 10760 10761 10761 10762 10762 10761 10761 10760 10759 10758 10756 10755 10754 10754 10753 10751 10749 10748 10746 10744 10742 10740 10738 10736 10734 10732 10730 10728 10725 10723 10720 10718 10714 10711 10708 10705 10701 10697 10693 10690 10686 10682 10678 10675 10671 10667 10664 10660 10656 10653 10649 10645 10642
10748 10749 10750 10751 10752 10754 10754 10755 10755 10755 10756 10756 10756 10758 10758 10757 10757 10756 10755 10754 10753 10751 10750 10749 10748 10747 10746 10744 10742 10740 10738 10736 10734 10732 10731 10729 10726 10724 10722 10719 10716 10713 10710 10707 10704 10701 10697 10693 10689 10686 10683 10679 10675 10672 10668 10664 10660 10656 10652 10648 10645 10641 10637
10743 10744 10745 10747 10748 10749 10750 10751 10751 10751 10751 10752 10752 10753 10754 10753 10753 10752 10752 10750 10749 10747 10746 10745 10744 10743 10742 10740 10738 10736 10734 10733 10731 10729 10727 10725 10722 10720 10718 10715 10713 10710 10707 10704 10701 10697 10694 10691 10687 10683 10680 10677 10673 10669 10666 10661 10657 10653 10648 10644 10640 10637 10633
10738 10739 10740 10742 10744 10745 10746 10746 10747 10746 10746 10747 10748 10749 10749 10749 10749 10749 10748 10746 10745 10744 10742 10741 10740 10739 10738 10736 10734 10732 10731 10729 10727 10725 10723 10721 10718 10716 10714 10711 10709 10706 10703 10700 10697 10694 10691 10688 10685 10682 10678 10675 10670 10667 10663 10658 10653 10649 10645 10640 10636 10633 10629
10733 10734 10736 10738 10740 10741 10741 10742 10743 10742 10742 10742 10744 10745 10745 10745 10745 10745 10744 10742 10741 10740 10738 10737 10736 10736 10734 10733 10731 10729 10727 10725 10723 10721 10719 10717 10715 10712 10710 10708 10705 10702 10700 10697 10694 10691 10688 10686 10683 10680 10677 10673 10668 10664 10659 10655 10650 10645 10641 10637 10633 10629 10625
10727 10729 10731 10734 10735 10736 10737 10737 10738 10738 10737 10738 10740 10741 10741 10741 10741 10740 10739 10738 10737 10735 10734 10733 10732 10731 10730 10728 10727 10725 10723 10721 10719 10717 10715 10713 10711 10708 10706 10704 10702 10699 10697 10694 10691 10688 10686 10683 10681 10677 10674 10670 10666 10661 10656 10652 10647 10642 10638 10634 10630 10626 10622
10722 10724 10727 10730 10731 10731 10732 10733 10734 10733 10733 10734 10736 10736 10737 10737 10736 10736 10735 10734 10733 10731 10730 10729 10728 10727 10725 10724 10722 10720 10718 10716 10714 10713 10711 10709 10707 10704 10702 10700 10698 10696 10694 10691 10688 10686 10683 10680 10678 10674 10671 10667 10662 10658 10653 10648 10644 10639 10635 10631 10627 10623 10618
10717 10720 10723 10725 10726 10727 10727 10728 10729 10728 10728 10730 10732 10732 10732 10732 10732 10731 10730 10729 10728 10727 10726 10725 10724 10722 10721 10719 10718 10716 10714 10712 10710 10708 10706 10704 10703 10701 10699 10697 10695 10693 10691 10688 10685 10683 10680 10677 10674 10671 10667 10663 10659 10654 10650 10645 10641 10636 10632 10627 10623 10618 10613
10713 10715 10718 10720 10721 10722 10723 10723 10723 10723 10724 10726 10727 10727 10727 10727 10727 10726 10726 10725 10724 10723 10722 10721 10720 10718 10717 10715 10713 10711 10709 10708 10706 10704 10702 10700 10699 10697 10695 10694 10692 10690 10687 10685 10682 10680 10677 10674 10671 10668 10664 10660 10656 10651 10646 10642 10637 10633 10629 10623 10618 10613 10608
10708 10711 10713 10715 10717 10717 10717 10717 10718 10719 10720 10721 10722 10722 10722 10723 10723 10722 10721 10719 10719 10718 10717 10716 10715 10714 10712 10711 10709 10707 10705 10703 10702 10700 10698 10697 10695 10694 10692 10690 10688 10686 10684 10681 10679 10676 10674 10671 10668 10665 10661 10657 10652 10648 10643 10638 10633 10629 10624 10620 10614 10608 10604
10703 10706 10709 10710 10712 10712 10712 10712 10713 10714 10715 10717 10717 10717 10718 10718 10718 10717 10716 10714 10714 10713 10712 10712 10711 10709 10708 10706 10705 10703 10701 10699 10698 10696 10695 10693 10692 10690 10689 10687 10685 10683 10680 10678 10675 10673 10670 10668 10665 10661 10658 10654 10649 10644 10640 10635 10630 10625 10620 10616 10611 10605 10599
10697 10701 10704 10705 10706 10707 10706 10708 10709 10710 10711 10712 10712 10713 10713 10713 10713 10712 10711 10710 10709 10708 10708 10707 10706 10704 10703 10702 10701 10699 10697 10696 10694 10692 10691 10690 10688 10687 10685 10684 10682 10680 10677 10674 10672 10669 10667 10664 10661 10658 10654 10650 10646 10641 10637 10632 10627 10622 10616 10611 10607 10601 10595
10692 10696 10699 10700 10701 10702 10702 10703 10704 10705 10707 10707 10707 10708 10708 10708 10708 10707 10706 10705 10704 10704 10703 10702 10701 10699 10698 10698 10697 10695 10693 10692 10691 10689 10688 10686 10685 10684 10682 10680 10678 10676 10673 10671 10668 10666 10663 10661 10657 10654 10650 10646 10642 10638 10633 10628 10623 10618 10613 10608 10602 10597 10591
10686 10690 10693 10695 10696 10697 10697 10698 10699 10701 10702 10702 10702 10702 10703 10703 10703 10702 10701 10700 10699 10699 10699 10697 10696 10695 10694 10693 10692 10691 10690 10688 10687 10686 10685 10683 10682 10681 10679 10677 10675 10673 10670 10668 10665 10663 10660 10657 10654 10650 10646 10642 10638 10634 10629 10624 10619 10614 10609 10604 10598 10592 10587
10681 10685 10688 10689 10690 10691 10692 10693 10695 10696 10697 10697 10697 10697 10698 10698 10698 10697 10696 10695 10695 10695 10694 10693 10692 10691 10690 10689 10688 10687 10686 10685 10683 10682 10681 10680 10679 10677 10676 10674 10672 10669 10667 10665 10662 10659 10656 10654 10650 10646 10642 10638 10634 10629 10625 10620 10615 10610 10605 10600 10594 10588 10583
10676 10680 10682 10683 10684 10686 10687 10689 10690 10691 10692 10693 10693 10693 10693 10693 10693 10692 10691 10691 10691 10690 10689 10688 10688 10687 10686 10685 10685 10683 10682 10681 10679 10678 10678 10677 10676 10674 10672 10671 10668 10666 10664 10661 10659 10656 10653 10650 10646 10642 10638 10634 10629 10625 10620 10615 10611 10605 10600 10596 10591 10585 10579
10671 10674 10676 10678 10679 10680 10682 10684 10685 10686 10687 10687 10688 10688 10688 10688 10688 10687 10687 10687 10687 10686 10685 10684 10684 10683 10683 10682 10681 10679 10678 10677 10676 10675 10674 10673 10672 10671 10669 10667 10665 10662 10660 10658 10655 10652 10649 10646 10642 10638 10634 10629 10625 10621 10615 10610 10605 10601 10597 10592 10587 10581 10576
10665 10669 10670 10672 10674 10675 10677 10679 10680 10681 10682 10683 10683 10684 10683 10683 10683 10683 10683 10683 10683 10682 10681 10681 10680 10680 10679 10678 10677 10676 10675 10673 10672 10672 10671 10670 10669 10667 10666 10664 10661 10659 10656 10654 10651 10648 10645 10642 10638 10634 10630 10626 10621 10616 10611 10607 10603 10599 10594 10589 10584 10578 10572
10660 10662 10665 10667 10669 10670 10673 10674 10675 10676 10677 10678 10679 10679 10678 10678 10679 10679 10679 10679 10679 10678 10678 10677 10677 10676 10675 10674 10673 10672 10671 10670 10669 10669 10668 10667 10665 10664 10662 10660 10657 10655 10653 10650 10648 10645 10641 10638 10634 10630 10626 10622 10618 10613 10609 10605 10601 10596 10591 10585 10580 10574 10568
10654 10657 10659 10662 10664 10666 10667 10669 10670 10672 10673 10674 10674 10674 10674 10674 10675 10676 10676 10675 10676 10675 10674 10674 10674 10673 10672 10671 10670 10669 10668 10667 10666 10665 10664 10663 10661 10660 10658 10656 10653 10651 10649 10647 10644 10641 10638 10634 10630 10627 10623 10619 10615 10611 10607 10603 10598 10593 10587 10581 10576 10569 10563
10649 10652 10654 10657 10659 10660 10662 10663 10665 10667 10668 10669 10669 10669 10670 10671 10671 10672 10672 10672 10672 10671 10671 10671 10670 10669 10668 10667 10666 10665 10664 10663 10662 10661 10660 10658 10657 10656 10654 10651 10649 10647 10645 10643 10641 10638 10634 10630 10627 10623 10619 10615 10612 10607 10603 10599 10594 10589 10583 10577 10571 10565 10558
10645 10647 10649 10652 10654 10655 10657 10659 10660 10662 10663 10664 10664 10665 10666 10667 10668 10668 10668 10669 10668 10668 10667 10667 10666 10665 10664 10663 10662 10661 10660 10659 10658 10657 10656 10654 10653 10651 10649 10647 10645 10643 10641 10640 10637 10634 10630 10627 10624 10620 10616 10612 10608 10603 10599 10594 10590 10584 10579 10573 10567 10560 10554
10640 10642 10644 10647 10649 10651 10653 10655 10656 10657 10658 10659 10660 10661 10663 10664 10664 10665 10665 10665 10665 10664 10664 10664 10662 10661 10661 10659 10658 10657 10656 10655 10654 10653 10652 10651 10649 10646 10645 10643 10641 10639 10637 10635 10633 10630 10627 10624 10620 10616 10613 10608 10604 10599 10595 10590 10585 10580 10574 10569 10563 10556 10550
10635 10637 10640 10643 10645 10646 10649 10650 10651 10653 10654 10655 10656 10657 10659 10660 10661 10661 10661 10661 10661 10661 10661 10660 10659 10657 10657 10656 10654 10654 10653 10652 10651 10650 10648 10646 10644 10642 10641 10639 10637 10635 10633 10631 10629 10626 10623 10620 10616 10613 10609 10605 10600 10596 10591 10587 10581 10576 10570 10564 10559 10552 10546
10630 10633 10636 10639 10640 10642 10644 10646 10647 10648 10649 10650 10652 10654 10656 10657 10657 10657 10658 10658 10657 10657 10657 10656 10655 10653 10653 10652 10651 10650 10649 10648 10647 10646 10644 10641 10640 10639 10637 10635 10633 10631 10629 10627 10624 10621 10619 10616 10612 10609 10605 10601 10597 10592 10588 10583 10578 10572 10566 10560 10554 10548 10542
10626 10629 10632 10634 10636 10638 10640 10641 10642 10644 10645 10646 10648 10650 10651 10652 10653 10654 10654 10654 10653 10653 10653 10652 10651 10649 10649 10648 10648 10647 10646 10645 10643 10641 10639 10638 10636 10635 10633 10631 10629 10627 10625 10623 10620 10617 10615 10612 10608 10605 10601 10597 10593 10588 10584 10579 10574 10568 10563 10557 10551 10545 10538
10622 10624 10627 10630 10632 10633 10635 10636 10638 10639 10640 10641 10643 10645 10647 10648 10649 10649 10649 10649 10649 10649 10648 10647 10647 10645 10645 10645 10644 10643 10642 10640 10639 10638 10636 10634 10633 10631 10629 10627 10625 10623 10621 10618 10616 10613 10611 10607 10604 10601 10597 10593 10589 10584 10580 10575 10570 10564 10559 10553 10547 10541 10535
10618 10620 10623 10626 10627 10628 10630 10632 10633 10635 10636 10637 10639 10641 10643 10644 10644 10644 10644 10644 10644 10644 10643 10643 10642 10641 10641 10641 10640 10639 10638 10636 10635 10634 10633 10631 10629 10627 10625 10623 10621 10619 10617 10614 10612 10609 10606 10603 10601 10597 10593 10589 10585 10581 10576 10571 10566 10560 10555 10549 10543 10537 10532
10613 10616 10619 10621 10622 10624 10626 10627 10628 10630 10631 10633 10635 10637 10638 10639 10639 10640 10640 10640 10639 10638 10638 10638 10638 10637 10637 10636 10635 10635 10634 10633 10632 10630 10629 10628 10626 10623 10621 10619 10618 10616 10613 10611 10608 10605 10602 10599 10597 10593 10589 10585 10581 10576 10571 10566 10562 10556 10551 10545 10540 10534 10528
10609 10612 10613 10615 10617 10619 10621 10622 10624 10626 10627 10629 10631 10632 10633 10634 10635 10636 10635 10635 10634 10634 10633 10633 10633 10632 10632 10631 10631 10630 10629 10628 10627 10626 10625 10623 10621 10619 10617 10615 10614 10611 10609 10606 10604 10601 10598 10595 10593 10589 10585 10580 10576 10572 10567 10562 10558 10552 10547 10542 10536 10531 10525
10604 10606 10608 10610 10612 10614 10616 10618 10620 10621 10623 10625 10626 10627 10628 10630 10631 10631 10630 10629 10629 10629 10629 10629 10628 10627 10627 10626 10625 10625 10624 10623 10622 10621 10620 10618 10617 10615 10613 10612 10610 10607 10604 10602 10599 10596 10594 10591 10588 10584 10580 10576 10572 10568 10563 10559 10554 10549 10544 10538 10533 10528 10522
10599 10601 10603 10605 10607 10609 10611 10613 10616 10618 10619 10620 10621 10622 10624 10625 10626 10626 10625 10625 10625 10624 10624 10624 10623 10622 10622 10621 10620 10619 10619 10618 10617 10616 10614 10613 10612 10611 10609 10607 10605 10603 10600 10597 10594 10592 10589 10586 10583 10580 10576 10572 10568 10564 10559 10555 10550 10545 10540 10535 10530 10524 10519
10594 10595 10597 10600 10603 10604 10606 10609 10612 10613 10614 10615 10616 10617 10619 10620 10620 10620 10620 10620 10620 10619 10619 10619 10618 10617 10616 10615 10614 10614 10613 10612 10612 10610 10609 10608 10607 10606 10605 10603 10600 10597 10595 10592 10590 10587 10584 10581 10578 10575 10571 10567 10564 10560 10555 10551 10546 10542 10537 10532 10527 10521 10516
10588 10590 10592 10596 10598 10600 10603 10605 10606 10607 10608 10610 10611 10612 10612 10613 10614 10614 10614 10614 10614 10613 10613 10612 10612 10611 10610 10610 10609 10608 10608 10608 10607 10606 10604 10603 10603 10601 10599 10597 10595 10592 10590 10588 10585 10582 10579 10576 10573 10569 10566 10563 10559 10556 10551 10547 10542 10538 10533 10528 10523 10518 10512
10581 10584 10588 10592 10594 10596 10598 10599 10600 10601 10603 10605 10605 10606 10607 10609 10609 10609 10608 10608 10609 10608 10607 10606 10606 10606 10605 10605 10604 10603 10603 10603 10602 10601 10600 10598 10597 10596 10594 10592 10590 10588 10586 10583 10581 10578 10575 10571 10568 10564 10561 10558 10555 10552 10548 10543 10539 10534 10530 10525 10520 10515 10509
10576 10580 10584 10586 10588 10590 10591 10593 10594 10596 10598 10599 10601 10602 10603 10604 10605 10604 10603 10602 10603 10602 10601 10601 10601 10600 10600 10600 10599 10598 10598 10597 10596 10595 10594 10593 10592 10590 10588 10587 10585 10583 10581 10579 10576 10573 10570 10566 10562 10559 10556 10553 10550 10547 10544 10540 10535 10531 10527 10522 10517 10512 10506
10570 10574 10577 10579 10581 10582 10584 10586 10589 10591 10593 10594 10596 10597 10599 10600 10601 10600 10599 10598 10597 10597 10596 10596 10596 10594 10594 10594 10593 10592 10592 10591 10590 10589 10588 10588 10587 10585 10583 10582 10580 10578 10576 10574 10571 10568 10564 10561 10558 10555 10551 10548 10545 10542 10539 10535 10531 10527 10522 10518 10513 10508 10502